Date String (YYYY-MM-DD hh:mm:ss) UTC,Instrument flags,absolute air pressure of the measurement (hPa),sample flow rate (lpm),inlet stack bypass flow (lpm),air temperature of the measurement (°C),ambient temperature measured by the external sensor (°C),aerosol sample conditioner tube jacket temperature (°C),OPC LED temperature (°C),internal box temperature (°C),relative humidity of the measurement (%),span deviation,mass concentration of particles derived from Lorenz-Mie calculation of OPC scattering (μg/m³),mass concentration of particles derived from Lorenz-Mie calculation of OPC scattering (μg/m³),mass concentration of particles derived from Lorenz-Mie calculation of OPC scattering (μg/m³)
DateTimeUTC,F1_M11,P_M11,Q1_M11,Q2_M11,T1_M11,T2_M11,T3_M11,T4_M11,T5_M11,U1_M11,ZSPAN_M11,X0_M11,X2_M11,X1_M11
2023-08-15 09:00:00,SystemResetWarning,0838.2,5.00,000.00,029.9,028.4,000.0,038.5,031.4,19.8,0000.0,0015.08,0006.06,0004.82
2023-08-15 09:01:00,SystemResetWarning,0838.2,5.00,000.00,029.9,028.4,000.0,038.5,031.4,19.8,0000.0,0014.53,0006.05,0004.84
2023-08-15 09:02:00,SystemResetWarning,0838.2,5.00,000.00,029.9,028.4,000.0,038.5,031.4,19.8,0001.7,0015.00,0006.02,0004.84
2023-08-15 09:03:00,SystemResetWarning,0838.2,5.00,000.00,029.9,028.4,000.0,038.5,031.4,19.8,0002.0,0015.15,0005.99,0004.84
2023-08-15 09:04:00,SystemResetWarning,0838.2,5.01,000.00,029.9,028.4,000.0,038.5,031.4,19.8,0002.6,0015.24,0005.98,0004.85
2023-08-15 09:05:00,SystemResetWarning,0838.2,5.00,000.00,029.9,028.4,000.0,038.6,031.4,19.8,0002.8,0015.39,0005.97,0004.85
2023-08-15 09:06:00,SystemResetWarning,0838.2,5.00,000.00,029.9,028.4,000.0,038.6,031.4,19.8,0003.0,0015.31,0005.93,0004.83
2023-08-15 09:07:00,SystemResetWarning,0838.2,4.99,000.00,029.9,028.5,000.0,038.6,031.4,19.8,0003.5,0015.38,0005.82,0004.82
2023-08-15 09:08:00,SystemResetWarning,0838.2,5.00,000.00,029.9,028.5,000.0,038.6,031.4,19.8,0003.3,0014.40,0005.80,0004.81
2023-08-15 09:09:00,SystemResetWarning,0838.1,5.01,000.00,029.9,028.5,000.0,038.6,031.4,19.8,0003.2,0014.46,0005.81,0004.80
2023-08-15 09:10:00,SystemResetWarning,0838.1,5.01,000.00,029.9,028.5,000.0,038.6,031.4,19.8,0003.1,0014.58,0005.84,0004.81
2023-08-15 09:11:00,SystemResetWarning,0838.1,5.00,000.00,029.9,028.5,000.0,038.6,031.4,19.8,0003.0,0014.63,0005.83,0004.81
2023-08-15 09:12:00,SystemResetWarning,0838.0,4.99,000.00,029.9,028.5,000.0,038.6,031.5,19.8,0003.3,0014.77,0005.80,0004.80
2023-08-15 09:13:00,SystemResetWarning,0838.0,4.99,000.00,029.9,028.5,000.0,038.6,031.5,19.8,0003.3,0015.02,0005.81,0004.79
2023-08-15 09:14:00,SystemResetWarning,0838.0,4.99,000.00,029.9,028.5,000.0,038.6,031.5,19.8,0003.4,0015.03,0005.80,0004.79
2023-08-15 09:15:00,SystemResetWarning,0838.0,5.00,000.00,030.0,028.5,000.0,038.6,031.4,19.8,0003.0,0016.86,0005.83,0004.79
2023-08-15 09:16:00,SystemResetWarning,0837.9,5.00,000.00,030.0,028.5,000.0,038.6,031.5,19.8,0002.6,0017.75,0005.87,0004.78
2023-08-15 09:17:00,SystemResetWarning,0837.9,5.00,000.00,030.0,028.5,000.0,038.6,031.5,19.8,0003.3,0017.85,0005.87,0004.80
2023-08-15 09:18:00,SystemResetWarning,0837.9,5.01,000.00,030.0,028.5,000.0,038.6,031.5,19.8,0003.3,0017.76,0005.90,0004.82
2023-08-15 09:19:00,SystemResetWarning,0837.9,5.00,000.00,030.0,028.5,000.0,038.6,031.5,19.8,0003.4,0017.32,0005.90,0004.83
2023-08-15 09:20:00,SystemResetWarning,0838.0,5.00,000.00,030.0,028.5,000.0,038.6,031.5,19.8,0002.8,0016.95,0005.89,0004.85
2023-08-15 09:21:00,SystemResetWarning,0837.9,5.01,000.00,030.0,028.5,000.0,038.6,031.5,19.8,0002.7,0017.53,0005.96,0004.86
2023-08-15 09:22:00,SystemResetWarning,0837.9,5.00,000.00,030.0,028.5,000.0,038.6,031.5,19.9,0002.4,0017.53,0005.99,0004.86
2023-08-15 09:23:00,SystemResetWarning,0837.9,5.00,000.00,030.0,028.5,000.0,038.6,031.5,19.9,0002.4,0017.23,0005.97,0004.87
2023-08-15 09:24:00,SystemResetWarning,0837.9,5.00,000.00,030.0,028.5,000.0,038.6,031.5,19.8,0002.6,0016.18,0005.94,0004.87
2023-08-15 09:25:00,SystemResetWarning,0838.0,5.00,000.00,030.0,028.5,000.0,038.6,031.5,19.8,0002.4,0015.55,0005.93,0004.87
2023-08-15 09:26:00,SystemResetWarning,0838.0,5.00,000.00,030.0,028.5,000.0,038.7,031.5,19.8,0002.2,0013.93,0005.92,0004.87
2023-08-15 09:27:00,SystemResetWarning,0838.0,5.00,000.00,030.0,028.5,000.0,038.7,031.5,20.0,0001.9,0013.27,0005.89,0004.88
2023-08-15 09:28:00,SystemResetWarning,0838.0,5.00,000.00,030.0,028.5,000.0,038.7,031.5,20.1,0001.6,0013.92,0005.88,0004.88
2023-08-15 09:29:00,SystemResetWarning,0838.0,5.00,000.00,030.0,028.5,000.0,038.7,031.5,20.0,0001.1,0013.84,0005.89,0004.87
2023-08-15 09:30:00,SystemResetWarning,0838.0,5.00,000.00,030.0,028.5,000.0,038.7,031.5,19.9,0001.0,0014.10,0005.90,0004.88
2023-08-15 09:31:00,SystemResetWarning,0838.0,5.00,000.00,030.0,028.5,000.0,038.7,031.5,19.9,0001.7,0014.77,0005.91,0004.88
2023-08-15 09:32:00,SystemResetWarning,0837.9,5.01,000.00,030.0,028.5,000.0,038.7,031.5,19.9,0002.0,0014.32,0005.84,0004.88
2023-08-15 09:33:00,SystemResetWarning,0838.0,5.00,000.00,030.0,028.5,000.0,038.7,031.5,19.9,0002.0,0014.40,0005.82,0004.88
2023-08-15 09:34:00,SystemResetWarning,0837.9,5.00,000.00,030.0,028.5,000.0,038.7,031.5,20.0,0002.2,0014.78,0005.85,0004.90
2023-08-15 09:35:00,SystemResetWarning,0837.9,5.00,000.00,030.0,028.5,000.0,038.7,031.5,19.9,0002.1,0015.34,0005.89,0004.91
2023-08-15 09:36:00,SystemResetWarning,0837.9,5.00,000.00,030.0,028.5,000.0,038.7,031.5,19.9,0001.7,0015.34,0005.89,0004.92
2023-08-15 09:37:00,SystemResetWarning,0837.8,5.00,000.00,030.0,028.5,000.0,038.7,031.5,19.8,0001.7,0015.63,0005.80,0004.92
2023-08-15 09:38:00,SystemResetWarning,0837.8,5.00,000.00,030.0,028.5,000.0,038.7,031.5,19.8,0001.7,0015.50,0005.75,0004.92
2023-08-15 09:39:00,SystemResetWarning,0837.8,4.99,000.00,030.0,028.5,000.0,038.7,031.5,19.8,0002.0,0015.28,0005.74,0004.93
2023-08-15 09:40:00,SystemResetWarning,0837.8,4.99,000.00,030.0,028.5,000.0,038.7,031.5,19.8,0002.2,0014.88,0005.75,0004.95
2023-08-15 09:41:00,SystemResetWarning,0837.8,4.99,000.00,030.0,028.5,000.0,038.7,031.5,19.8,0002.3,0014.54,0005.76,0004.97
2023-08-15 09:42:00,SystemResetWarning,0837.8,5.00,000.00,030.0,028.5,000.0,038.7,031.5,19.8,0001.9,0013.88,0005.74,0004.97
2023-08-15 09:43:00,SystemResetWarning,0837.8,5.00,000.00,030.0,028.5,000.0,038.7,031.5,19.8,0001.7,0013.71,0005.75,0004.99
2023-08-15 09:44:00,SystemResetWarning,0837.7,5.00,000.00,030.0,028.5,000.0,038.7,031.5,19.8,0001.6,0013.53,0005.74,0004.99
2023-08-15 09:45:00,SystemResetWarning,0837.7,5.00,000.00,030.0,028.5,000.0,038.7,031.5,19.8,0000.0,0013.78,0005.75,0004.98
2023-08-15 09:46:00,SystemResetWarning,0837.7,5.00,000.00,030.0,028.5,000.0,038.7,031.5,19.9,0000.0,0015.33,0005.73,0004.98
2023-08-15 09:47:00,SystemResetWarning,0837.8,5.00,000.00,030.0,028.5,000.0,038.7,031.5,19.8,0000.0,0015.84,0005.76,0004.99
2023-08-15 09:48:00,SystemResetWarning,0837.8,5.00,000.00,030.0,028.5,000.0,038.7,031.5,19.8,0000.0,0015.58,0005.83,0005.01
2023-08-15 09:49:00,SystemResetWarning,0837.8,5.00,000.00,030.0,028.5,000.0,038.7,031.5,19.6,0000.0,0015.59,0005.88,0005.02
2023-08-15 09:50:00,SystemResetWarning,0837.8,5.00,000.00,030.0,028.6,000.0,038.7,031.6,19.6,0000.0,0015.27,0005.89,0005.02
2023-08-15 09:51:00,SystemResetWarning,0837.7,5.00,000.00,030.0,028.6,000.0,038.7,031.6,19.7,0000.0,0015.37,0005.90,0005.02
2023-08-15 09:52:00,SystemResetWarning,0837.8,5.00,000.00,030.1,028.6,000.0,038.7,031.6,19.8,0000.0,0015.40,0005.89,0005.01
2023-08-15 09:53:00,SystemResetWarning,0837.8,5.00,000.00,030.1,028.6,000.0,038.7,031.6,19.8,0000.0,0015.47,0005.92,0005.01
2023-08-15 09:54:00,SystemResetWarning,0837.7,5.00,000.00,030.1,028.6,000.0,038.7,031.6,19.8,0000.0,0015.50,0005.95,0005.00
2023-08-15 09:55:00,SystemResetWarning,0837.7,4.99,000.00,030.1,028.6,000.0,038.7,031.6,19.8,0000.0,0015.41,0005.97,0005.00
2023-08-15 09:56:00,SystemResetWarning,0837.7,5.00,000.00,030.1,028.6,000.0,038.7,031.6,19.9,0000.0,0015.54,0005.98,0005.01
2023-08-15 09:57:00,SystemResetWarning,0837.8,5.00,000.00,030.1,028.6,000.0,038.7,031.6,19.9,0000.0,0013.61,0005.99,0005.02
2023-08-15 09:58:00,SystemResetWarning,0837.7,5.00,000.00,030.1,028.6,000.0,038.7,031.6,19.9,0000.0,0012.90,0005.94,0005.02
2023-08-15 09:59:00,SystemResetWarning,0837.8,4.99,000.00,030.1,028.6,000.0,038.7,031.6,19.9,0000.0,0012.64,0005.90,0005.01
